Wind_Speed
40 40 40 39 40 40 41 42 42 42 41 40 41 41 42 42 42 43 43 43 44 44 46 46 47 47 47 46 46 46 47 48 48 47 46 44 43 41
40 40 39 40 40 41 42 42 42 42 41 40 40 41 41 41 42 42 43 43 42 43 45 46 47 47 47 46 46 46 46 46 45 44 44 42 40 40
40 40 40 40 41 42 42 42 42 42 41 40 40 40 40 41 41 42 43 43 42 42 44 45 45 45 45 45 45 44 44 44 43 43 41 40 39 39
41 41 41 40 41 42 42 42 42 41 40 39 40 39 39 40 40 41 42 43 43 42 42 42 43 44 44 44 43 42 43 42 41 40 39 38 38 37
41 41 41 42 42 42 42 41 39 38 38 38 38 39 39 40 40 40 41 42 41 40 40 41 41 42 42 41 41 41 41 40 39 38 37 36 35 35
39 39 40 40 40 40 40 39 37 38 39 39 38 39 39 39 40 39 39 38 38 39 40 40 40 40 40 39 39 39 39 38 37 36 35 35 34 34
37 38 38 38 37 37 38 38 37 37 38 38 38 38 38 39 38 37 38 37 37 38 39 39 38 38 38 37 36 36 35 35 34 34 33 33 34 33
36 37 38 37 37 37 36 36 36 36 36 36 36 37 37 37 37 36 36 36 36 36 36 36 36 36 35 34 34 34 33 33 33 32 32 32 32 31
36 36 37 37 36 35 36 36 36 36 36 36 36 36 36 36 36 36 35 36 35 35 34 34 33 33 33 33 32 32 32 31 31 30 30 30 29 29
35 35 35 35 35 36 36 35 35 36 36 35 34 34 34 34 34 34 33 34 34 33 34 33 31 30 31 31 30 30 30 29 28 28 28 28 28 28
33 33 34 35 35 35 35 34 33 34 34 32 32 31 31 32 32 32 32 32 31 31 32 31 29 28 29 29 29 29 29 28 28 28 27 26 27 27
33 33 34 34 34 33 33 33 32 32 31 29 29 30 30 31 31 31 31 30 30 30 30 29 28 27 26 26 27 28 28 27 27 27 25 25 26 26
31 32 33 32 33 33 32 31 31 31 30 29 29 29 28 29 29 29 29 29 28 28 28 27 27 27 26 26 26 26 26 26 26 26 26 26 26 25
30 31 31 31 32 31 31 31 30 30 29 28 28 27 27 27 27 27 27 27 27 27 26 26 26 25 25 25 25 24 25 26 25 25 25 25 25 24
29 29 29 29 29 29 29 29 29 29 29 28 27 26 25 25 25 25 26 26 26 26 26 26 26 25 24 24 24 24 24 24 24 23 23 23 22 23
28 27 27 27 27 27 28 28 28 27 27 27 26 25 24 23 22 23 24 25 25 25 25 26 25 24 24 23 23 22 22 21 22 22 21 20 20 20
26 25 25 26 26 26 27 26 26 25 25 25 25 24 23 22 22 21 22 23 24 24 24 24 24 23 22 22 21 21 20 19 20 19 18 18 18 18
23 23 23 23 24 24 24 24 23 22 22 23 23 23 22 21 21 21 21 22 22 23 23 22 21 21 20 21 21 19 18 18 17 16 15 16 16 16
22 22 22 21 22 22 21 21 20 20 21 21 21 21 21 21 20 20 20 21 21 22 21 20 20 20 19 19 19 17 16 15 14 13 13 14 13 12
21 21 21 20 20 20 19 18 18 19 20 20 20 20 21 21 20 20 19 19 19 19 20 19 19 18 18 17 16 15 14 12 12 11 11 10 10 10
19 19 20 20 19 18 17 17 17 18 18 19 19 19 19 19 20 19 19 18 18 18 18 17 17 16 15 14 14 13 12 11 10 9 8 7 7 9
18 18 19 18 17 17 16 16 16 16 16 16 16 16 16 17 18 17 17 16 16 16 15 15 14 13 12 11 10 10 9 9 8 7 6 5 6 7
18 17 17 16 16 15 14 14 15 15 14 14 14 14 14 15 15 15 14 14 14 13 13 12 11 10 9 8 8 7 7 6 6 6 6 6 7 7
Wind_Direction
270 272 274 275 276 278 280 282 283 283 283 284 283 284 284 282 282 282 283 284 284 286 289 291 292 294 296 297 298 298 298 299 300 301 301 300 300 300
271 271 274 276 277 280 282 283 283 284 285 284 284 285 285 285 283 283 283 284 286 287 288 292 293 295 296 297 298 298 298 299 300 300 300 299 300 300
270 271 273 275 277 280 282 283 283 284 284 283 285 284 284 285 283 284 284 284 285 287 289 292 293 295 297 297 298 298 298 299 299 300 299 299 301 302
270 272 274 276 278 280 281 282 283 282 283 284 285 284 284 284 284 284 285 286 286 288 291 292 294 295 297 298 298 298 299 300 300 300 299 300 302 303
271 273 274 275 279 281 282 283 282 281 283 284 283 284 283 283 284 285 286 287 288 288 291 293 294 296 298 299 299 299 300 301 300 300 301 302 304 305
271 273 275 278 280 281 282 283 282 281 282 283 283 282 283 283 285 287 288 287 288 290 292 294 295 296 299 301 301 300 301 301 301 301 301 303 304 305
271 274 277 279 281 282 283 283 282 282 282 283 283 284 285 284 285 286 287 288 290 292 294 295 297 299 301 301 301 301 302 301 302 302 303 304 304 304
273 275 277 278 280 282 283 284 283 282 283 285 285 285 285 284 284 287 289 288 289 292 294 296 298 299 300 301 301 302 302 302 304 305 304 304 305 305
275 278 278 279 281 283 283 283 283 282 283 284 285 284 285 285 285 288 290 292 292 293 294 297 299 300 301 303 303 303 304 305 306 307 307 305 306 306
277 278 278 280 282 283 282 283 283 282 282 283 283 285 285 285 285 287 290 294 296 296 297 298 300 301 303 303 304 305 305 306 308 310 310 308 307 308
278 278 278 280 282 282 282 283 283 282 283 285 285 286 287 287 287 288 291 296 297 299 300 300 300 302 304 305 304 305 305 306 307 309 310 309 310 310
276 276 277 278 279 281 282 282 282 282 284 285 286 286 288 289 289 289 291 294 298 299 300 301 301 302 303 305 305 305 306 306 308 309 309 309 310 312
275 274 275 277 278 279 279 280 281 282 282 282 284 285 287 288 289 289 290 292 297 300 301 301 302 302 302 304 304 304 304 305 307 309 309 309 311 313
276 275 276 277 277 277 277 279 280 281 281 281 283 285 287 289 289 289 290 291 295 299 301 301 302 302 301 302 302 302 304 305 305 307 309 310 313 315
276 276 277 276 275 276 277 278 279 280 280 280 282 284 286 287 288 290 291 293 294 298 299 301 301 302 301 302 302 303 304 304 305 307 308 310 314 316
275 276 277 275 274 275 277 278 279 279 279 279 280 282 284 286 288 291 293 293 295 297 301 303 302 301 303 304 305 306 307 307 308 309 310 312 315 317
277 277 276 274 275 276 277 277 277 277 276 277 278 280 283 285 287 291 294 295 296 297 300 302 301 302 304 306 308 308 309 310 312 313 313 315 317 319
277 277 275 275 277 278 278 277 276 275 275 278 280 280 281 282 285 290 293 295 297 297 299 299 299 301 304 307 310 312 312 311 313 315 314 316 318 320
274 273 272 275 279 280 279 277 275 276 278 280 281 281 281 282 285 290 293 296 299 300 300 300 301 303 303 305 308 311 314 314 316 317 316 318 322 326
272 270 271 274 280 281 280 278 276 277 280 282 282 281 281 282 285 290 294 298 299 301 301 301 303 305 306 307 309 312 315 317 318 321 323 327 334 342
271 270 271 274 279 280 279 278 276 278 281 284 286 286 286 286 287 291 295 298 301 302 302 303 303 304 307 309 311 315 319 323 327 331 336 343 351 356
269 270 272 274 278 278 276 275 276 278 282 284 286 290 292 292 292 293 297 301 304 304 305 308 308 307 311 313 315 320 326 332 339 345 353 0 4 6
268 270 271 272 274 275 274 274 275 278 280 283 285 290 293 296 299 300 303 305 307 307 309 313 313 314 317 320 323 330 339 350 1 12 17 17 15 20
Height
5667 5668 5668 5669 5668 5668 5667 5666 5666 5666 5666 5664 5662 5660 5657 5656 5654 5652 5650 5648 5646 5643 5640 5637 5633 5629 5624 5620 5616 5611 5606 5601 5596 5591 5586 5580 5575 5570
5657 5658 5659 5659 5658 5658 5657 5656 5654 5653 5654 5653 5651 5649 5647 5645 5643 5641 5639 5637 5635 5632 5629 5625 5622 5617 5613 5609 5604 5600 5595 5590 5584 5580 5575 5570 5565 5560
5648 5648 5649 5649 5649 5647 5646 5645 5644 5643 5642 5642 5640 5638 5636 5634 5632 5630 5628 5626 5623 5621 5618 5614 5610 5607 5603 5598 5594 5589 5584 5579 5574 5569 5564 5560 5555 5550
5639 5639 5639 5639 5638 5637 5636 5635 5634 5633 5632 5632 5630 5628 5626 5624 5622 5620 5617 5615 5613 5610 5607 5603 5600 5596 5592 5588 5583 5578 5574 5568 5563 5559 5555 5551 5546 5541
5629 5629 5629 5629 5628 5627 5626 5625 5624 5623 5621 5621 5620 5618 5616 5614 5612 5609 5606 5604 5602 5599 5596 5593 5590 5586 5582 5577 5573 5568 5564 5559 5554 5550 5546 5541 5537 5532
5619 5619 5619 5619 5618 5617 5616 5615 5614 5613 5612 5611 5610 5608 5606 5604 5601 5599 5597 5594 5591 5589 5586 5583 5580 5576 5572 5568 5564 5559 5554 5550 5545 5541 5537 5533 5528 5524
5610 5610 5610 5609 5609 5608 5607 5606 5604 5604 5602 5601 5600 5598 5596 5594 5592 5589 5587 5585 5582 5579 5577 5574 5570 5567 5563 5559 5555 5550 5546 5541 5537 5533 5528 5524 5520 5515
5601 5601 5600 5600 5599 5599 5597 5596 5595 5594 5593 5591 5590 5588 5586 5584 5582 5580 5578 5577 5575 5572 5568 5565 5561 5557 5554 5550 5546 5542 5538 5534 5529 5525 5521 5516 5512 5508
5592 5592 5591 5590 5590 5589 5588 5587 5585 5584 5583 5581 5580 5578 5576 5574 5573 5571 5569 5567 5565 5562 5559 5556 5552 5549 5545 5541 5538 5534 5530 5526 5522 5518 5514 5510 5505 5501
5582 5582 5582 5581 5581 5580 5579 5577 5576 5574 5573 5571 5570 5568 5566 5565 5563 5562 5560 5558 5556 5553 5551 5549 5545 5541 5537 5533 5530 5526 5523 5519 5515 5511 5507 5503 5499 5495
5573 5572 5572 5572 5571 5570 5569 5568 5567 5565 5563 5562 5560 5559 5557 5556 5555 5553 5552 5550 5548 5545 5543 5540 5538 5535 5531 5527 5522 5519 5515 5512 5509 5505 5501 5497 5493 5489
5564 5563 5562 5562 5561 5560 5559 5558 5557 5556 5555 5553 5552 5550 5549 5547 5546 5545 5543 5542 5540 5538 5535 5533 5530 5527 5525 5521 5517 5513 5509 5506 5502 5498 5494 5491 5487 5483
5554 5554 5553 5552 5551 5551 5550 5549 5548 5547 5546 5545 5544 5543 5541 5540 5538 5537 5535 5534 5532 5530 5528 5525 5522 5519 5517 5515 5512 5508 5504 5500 5496 5492 5489 5485 5482 5478
5545 5544 5543 5543 5542 5542 5541 5540 5540 5539 5538 5537 5536 5535 5534 5533 5531 5529 5528 5526 5525 5523 5520 5518 5515 5513 5510 5508 5505 5502 5498 5494 5491 5487 5483 5480 5476 5473
5536 5535 5535 5534 5533 5533 5533 5532 5531 5531 5530 5529 5529 5528 5527 5526 5524 5522 5521 5519 5517 5516 5513 5510 5508 5506 5503 5501 5498 5495 5492 5489 5485 5481 5478 5475 5472 5469
5527 5527 5526 5525 5525 5525 5524 5524 5523 5522 5522 5522 5521 5521 5520 5519 5518 5516 5515 5513 5511 5509 5506 5504 5501 5499 5497 5494 5491 5489 5485 5483 5480 5476 5473 5470 5467 5464
5519 5519 5518 5518 5518 5517 5516 5516 5515 5514 5514 5514 5514 5514 5513 5512 5511 5510 5509 5507 5505 5504 5501 5498 5496 5493 5490 5488 5486 5483 5480 5477 5474 5472 5469 5467 5464 5461
5513 5512 5512 5512 5511 5510 5509 5509 5508 5508 5507 5507 5507 5506 5506 5506 5505 5504 5503 5501 5500 5498 5496 5493 5491 5489 5486 5483 5481 5479 5476 5473 5470 5468 5466 5463 5461 5458
5506 5506 5506 5506 5505 5504 5503 5502 5502 5502 5502 5501 5501 5500 5500 5500 5499 5499 5497 5496 5494 5492 5490 5488 5486 5484 5482 5480 5478 5475 5472 5470 5467 5465 5463 5461 5458 5456
5500 5500 5500 5500 5499 5498 5497 5497 5497 5497 5497 5496 5495 5495 5494 5494 5494 5493 5492 5490 5489 5487 5485 5483 5482 5480 5478 5476 5474 5472 5470 5467 5465 5463 5461 5459 5457 5455
5494 5494 5494 5494 5494 5493 5493 5492 5492 5492 5492 5491 5491 5490 5489 5489 5488 5487 5486 5485 5484 5482 5481 5479 5478 5476 5474 5472 5471 5469 5467 5465 5463 5461 5460 5458 5456 5455
5488 5489 5489 5489 5488 5488 5488 5488 5488 5488 5488 5487 5486 5486 5485 5484 5483 5482 5481 5480 5479 5478 5476 5475 5474 5472 5471 5469 5468 5467 5465 5463 5462 5460 5459 5458 5456 5455
5483 5483 5483 5483 5483 5483 5483 5483 5483 5483 5483 5483 5482 5482 5481 5480 5479 5478 5477 5476 5475 5474 5473 5472 5471 5470 5469 5468 5467 5465 5464 5463 5462 5461 5459 5457 5456 5455